Location: Baia de Cri?
(46.1667°N, 22.7167°E)
Time: 22:41:23
(UTC+00:00)

BREEZE M DEB (TANK) - Pass Details

Date: 15 January 2026
Orbit: 287 x 11207 km, 49.5° (Epoch: 12 February)

Event Time Altitude Azimuth Distance (km) Brightness Sun altitude
Exits shadow 05:22:33 10° 281° (W) 1,793 4.3 -7.8°
Reaches altitude 10° 05:22:37 10° 280° (W) 1,769 4.3 -7.8°
Maximum altitude 05:26:05 46° 205° (SSW) 1,157 3.9 -7.3°
Drops below altitude 10° 05:35:49 10° 137° (SE) 4,888 8.4 -5.7°
Sets 05:42:48 0° 134° (SE) 7,556 9.8 -4.6°
